Erie, PA

3:33 PM EST on November 13, 2019 (GMT -0500)
Erie International

Weather History for KERI - September, 2019

Change the Weather History Date:

Wednesday, September 11, 2019

  Actual Average Record
Temperature  
Mean Temperature 76 °F 66 °F  
Max Temperature 84 °F 74 °F 92 °F (1925)
Min Temperature 71 °F 58 °F 42 °F (1967)
Degree Days  
Heating Degree Days 0 2  
Month to date heating degree days 16  
Since 1 July heating degree days 34  
Cooling Degree Days 12 3  
Month to date cooling degree days 39  
Year to date cooling degree days 597  
Growing Degree Days 26 (Base 50)    
Moisture  
Dew Point 67 °F    
Average Humidity 76    
Maximum Humidity 94    
Minimum Humidity 58    
Precipitation  
Precipitation 1.07 in 0.14 in 1.36 in (2015)
Month to date precipitation 1.50  
Year to date precipitation 27.33  
Snow  
Snow - 0.00 in - ()
Month to date snowfall 0.0  
Since 1 July snowfall 0.0  
Since 1 September snowfall 0.0  
Snow Depth -    
Sea Level Pressure  
Sea Level Pressure 30.10 in    
Wind  
Wind Speed 8 mph ()    
Max Wind Speed 21 mph    
Max Gust Speed 28 mph    
Visibility 7.4 miles    
Events Fog , Rain , Thunderstorm    
T = Trace of Precipitation, MM = Missing Value Source: Averaged Metar Reports

Daily Weather History Graph

Daily Weather History Graph

Search for Another Location

Airport or City:

Astronomy

Sep. 11, 2019 Rise Set
Actual Time 6:56 AM EDT 7:37 PM EDT
Civil Twilight 6:28 AM EDT 8:05 PM EDT
Nautical Twilight 5:54 AM EDT 8:39 PM EDT
Astronomical Twilight 5:20 AM EDT 9:13 PM EDT
Moon 6:52 PM EDT (9/11) 4:13 AM EDT (9/11)
Length of Visible Light 13h 37m
Length of Day
12h 41m
Waxing Gibbous, 94% of the Moon is Illuminated
Sep 11
Waxing Gibbous
Sep 14
Full
Sep 21
Last Quarter
Sep 28
New
Oct 5
First Quarter

Hourly Weather History & Observations

Time (EDT) Temp. Heat Index Dew Point Humidity Pressure Visibility Wind Dir Wind Speed Gust Speed Precip Events Conditions
12:51 AM 78.1 °F - 63.0 °F 60% 30.09 in 10.0 mi South 11.5 mph - N/A   Clear
1:51 AM 79.0 °F - 63.0 °F 58% 30.09 in 10.0 mi SSW 13.8 mph - N/A   Clear
2:51 AM 79.0 °F - 64.0 °F 60% 30.09 in 10.0 mi SW 11.5 mph - N/A   Overcast
3:51 AM 77.0 °F - 64.0 °F 64% 30.11 in 10.0 mi SSW 9.2 mph - N/A   Mostly Cloudy
4:51 AM 75.9 °F - 64.0 °F 67% 30.11 in 10.0 mi SW 6.9 mph - N/A   Clear
5:51 AM 75.9 °F - 64.9 °F 69% 30.12 in 10.0 mi SW 6.9 mph - N/A   Clear
6:51 AM 73.0 °F - 64.9 °F 76% 30.13 in 10.0 mi SSW 6.9 mph - N/A   Partly Cloudy
7:51 AM 75.0 °F - 66.0 °F 73% 30.15 in 10.0 mi SSW 9.2 mph - N/A   Clear
8:51 AM 78.1 °F - 66.9 °F 68% 30.15 in 10.0 mi SW 8.1 mph - N/A   Clear
9:51 AM 80.1 °F 82.7 °F 68.0 °F 67% 30.15 in 10.0 mi SW 6.9 mph - N/A   Clear
10:51 AM 82.9 °F 86.5 °F 69.1 °F 63% 30.14 in 10.0 mi SW 4.6 mph - N/A   Clear
11:51 AM 82.0 °F 84.9 °F 68.0 °F 62% 30.14 in 10.0 mi WSW 11.5 mph 17.3 mph N/A   Clear
12:51 PM 81.0 °F 83.8 °F 68.0 °F 65% 30.13 in 10.0 mi West 11.5 mph - N/A   Clear
1:51 PM 82.0 °F 85.5 °F 69.1 °F 65% 30.12 in 10.0 mi West 8.1 mph - N/A   Clear
2:51 PM 81.0 °F 84.1 °F 69.1 °F 67% 30.10 in 9.0 mi WNW 8.1 mph - N/A   Clear
3:51 PM 82.9 °F 86.5 °F 69.1 °F 63% 30.08 in 9.0 mi WNW 4.6 mph - N/A   Clear
4:51 PM 81.0 °F 84.1 °F 69.1 °F 67% 30.07 in 10.0 mi NW 5.8 mph - N/A   Clear
5:51 PM 81.0 °F 83.8 °F 68.0 °F 65% 30.07 in 10.0 mi Calm Calm - N/A   Scattered Clouds
6:51 PM 81.0 °F 83.8 °F 68.0 °F 65% 30.05 in 10.0 mi Calm Calm - N/A   Partly Cloudy
7:25 PM 81.0 °F 84.1 °F 69.1 °F 67% 30.05 in 10.0 mi South 3.5 mph - N/A Thunderstorm Thunderstorm
7:38 PM 75.0 °F - 70.0 °F 84% 30.09 in 3.0 mi SSW 20.7 mph 27.6 mph 0.00 in Rain , Thunderstorm Light Thunderstorms and Rain
7:40 PM 73.9 °F - 70.0 °F 87% 30.09 in 1.5 mi SW 19.6 mph 27.6 mph 0.00 in Rain , Thunderstorm Heavy Thunderstorms and Rain
7:44 PM 73.0 °F - 69.1 °F 87% 30.10 in 0.8 mi SSW 10.4 mph 25.3 mph 0.17 in Rain , Thunderstorm Heavy Thunderstorms and Rain
7:49 PM 71.6 °F - 69.8 °F 94% 30.10 in 0.5 mi SW 9.2 mph - 0.37 in Fog , Rain , Thunderstorm Heavy Thunderstorms and Rain
7:51 PM 72.0 °F - 68.0 °F 87% 30.07 in 0.5 mi SSW 5.8 mph - 0.45 in Fog , Rain , Thunderstorm Heavy Thunderstorms and Rain
7:55 PM 71.1 °F - 68.0 °F 90% 30.07 in 0.8 mi NNE 4.6 mph - 0.21 in Rain , Thunderstorm Heavy Thunderstorms and Rain
8:01 PM 71.1 °F - 66.9 °F 87% 30.08 in 2.0 mi ENE 6.9 mph - 0.23 in Rain , Thunderstorm Thunderstorms and Rain
8:08 PM 71.1 °F - 66.9 °F 87% 30.07 in 6.0 mi SE 6.9 mph - 0.26 in Rain , Thunderstorm Light Thunderstorms and Rain
8:25 PM 71.1 °F - 66.9 °F 87% 30.07 in 10.0 mi South 6.9 mph - 0.26 in Rain , Thunderstorm Light Rain
8:51 PM 72.0 °F - 68.0 °F 87% 30.09 in 10.0 mi WNW 10.4 mph - 0.26 in Thunderstorm Thunderstorm
9:00 PM 72.0 °F - 68.0 °F 87% 30.10 in 1.0 mi Variable 5.8 mph - 0.04 in Rain , Thunderstorm Heavy Thunderstorms and Rain
9:05 PM 72.0 °F - 68.0 °F 87% 30.10 in 0.8 mi Calm Calm - 0.28 in Rain , Thunderstorm Heavy Thunderstorms and Rain
9:14 PM 72.0 °F - 68.0 °F 87% 30.11 in 3.0 mi SW 3.5 mph - 0.33 in Rain , Thunderstorm Light Thunderstorms and Rain
9:28 PM 72.0 °F - 68.0 °F 87% 30.10 in 5.0 mi SSW 4.6 mph - 0.34 in Rain , Thunderstorm Light Rain
9:39 PM 72.0 °F - 68.0 °F 87% 30.09 in 6.0 mi South 4.6 mph - 0.36 in Rain Light Rain
9:51 PM 71.1 °F - 68.0 °F 90% 30.07 in 10.0 mi South 5.8 mph - 0.36 in Rain Light Rain
10:03 PM 72.0 °F - 68.0 °F 87% 30.08 in 10.0 mi South 6.9 mph - 0.00 in Rain Light Rain
10:51 PM 72.0 °F - 68.0 °F 87% 30.06 in 10.0 mi South 8.1 mph - 0.00 in   Scattered Clouds
11:51 PM 71.1 °F - 66.9 °F 87% 30.05 in 10.0 mi SSW 5.8 mph - N/A   Clear